Weather History for Enid, OK

Change the Weather History Date:

Monday, September 24, 2012

  Actual Average Record
Temperature  
Mean Temperature 78 °F -  
Max Temperature 95 °F 78 °F 95 °F (2012)
Min Temperature 60 °F 57 °F 48 °F (2000)
Cooling Degree Days 12    
Growing Degree Days 28 (Base 50)    
Moisture  
Dew Point 51 °F    
Average Humidity 52    
Maximum Humidity 77    
Minimum Humidity 25    
Precipitation  
Precipitation 0.00 in - - ()
Sea Level Pressure  
Sea Level Pressure 29.97 in    
Wind  
Wind Speed 9 mph (SSE)    
Max Wind Speed 24 mph    
Max Gust Speed 31 mph    
Visibility 10 miles    
Events      
Averages and records for this station are not official NWS values.
T = Trace of Precipitation, MM = Missing Value Source: NWS Daily Summary

Daily Weather History Graph

Daily Weather History Graph

Search for Another Location

Airport:

Trip Planner

Search our weather history database for the weather conditions in past years. The results will help you decide how hot, cold, wet, or windy it might be!

Date:

Astronomy

Sep. 24, 2012 Rise Set
Actual Time 7:21 AM CDT 7:24 PM CDT
Civil Twilight 6:55 AM CDT 7:49 PM CDT
Nautical Twilight 6:25 AM CDT 8:19 PM CDT
Astronomical Twilight 5:55 AM CDT 8:50 PM CDT
Moon 4:03 PM CDT (9/24) 1:47 AM CDT (9/24)
Length of Visible Light 12h 54m
Length of Day
12h 03m
Waxing Gibbous, 71% of the Moon is Illuminated
Sep 24
Waxing Gibbous
Sep 29
Full
Oct 8
Last Quarter
Oct 15
New
Oct 21
First Quarter

Hourly Weather History & Observations

Time (CDT) Temp. Heat Index Dew Point Humidity Pressure Visibility Wind Dir Wind Speed Gust Speed Precip Events Conditions
12:15 AM 64.4 °F - 42.8 °F 45% 30.10 in 10.0 mi East 4.6 mph - N/A   Clear
12:35 AM 64.4 °F - 42.8 °F 45% 30.09 in 10.0 mi East 5.8 mph - N/A   Clear
12:55 AM 64.4 °F - 42.8 °F 45% 30.08 in 10.0 mi East 9.2 mph - N/A   Clear
1:15 AM 64.4 °F - 42.8 °F 45% 30.07 in 10.0 mi East 9.2 mph - N/A   Clear
1:35 AM 64.4 °F - 42.8 °F 45% 30.06 in 10.0 mi ESE 10.4 mph - N/A   Clear
1:55 AM 64.4 °F - 44.6 °F 49% 30.07 in 10.0 mi East 6.9 mph - N/A   Clear
2:15 AM 62.6 °F - 46.4 °F 55% 30.06 in 10.0 mi ESE 10.4 mph - N/A   Clear
2:35 AM 62.6 °F - 46.4 °F 55% 30.05 in 10.0 mi ESE 9.2 mph - N/A   Clear
2:55 AM 62.6 °F - 48.2 °F 59% 30.05 in 10.0 mi ESE 8.1 mph - N/A   Clear
3:15 AM 62.6 °F - 50.0 °F 63% 30.05 in 10.0 mi ESE 6.9 mph - N/A   Clear
3:35 AM 62.6 °F - 50.0 °F 63% 30.04 in 10.0 mi ESE 8.1 mph - N/A   Clear
3:55 AM 62.6 °F - 50.0 °F 63% 30.04 in 10.0 mi ESE 5.8 mph - N/A   Clear
4:15 AM 60.8 °F - 51.8 °F 72% 30.03 in 10.0 mi ESE 6.9 mph - N/A   Clear
4:55 AM 60.8 °F - 51.8 °F 72% 30.02 in 10.0 mi ESE 3.5 mph - N/A   Clear
5:15 AM 60.8 °F - 51.8 °F 72% 30.02 in 10.0 mi SE 4.6 mph - N/A   Clear
5:35 AM 60.8 °F - 53.6 °F 77% 30.02 in 10.0 mi SE 3.5 mph - N/A   Clear
5:55 AM 60.8 °F - 53.6 °F 77% 30.02 in 10.0 mi SE 5.8 mph - N/A   Clear
6:17 AM 60.8 °F - 53.6 °F 77% 30.02 in 10.0 mi SSE 9.2 mph - N/A   Scattered Clouds
6:50 AM 62.6 °F - 55.4 °F 77% 30.03 in 10.0 mi SSE 9.2 mph - N/A   Mostly Cloudy
7:50 AM 64.4 °F - 55.4 °F 73% 30.03 in 10.0 mi South 6.9 mph - N/A   Mostly Cloudy
8:50 AM 68.0 °F - 57.2 °F 68% 30.03 in 10.0 mi South 17.3 mph - N/A   Mostly Cloudy
9:55 AM 73.4 °F - 59.0 °F 61% 30.03 in 10.0 mi South 15.0 mph 21.9 mph N/A   Mostly Cloudy
10:50 AM 78.8 °F - 57.2 °F 47% 30.02 in 10.0 mi South 17.3 mph 21.9 mph N/A   Scattered Clouds
11:50 AM 87.8 °F 86.1 °F 55.4 °F 33% 30.00 in 10.0 mi SSW 17.3 mph 23.0 mph N/A   Scattered Clouds
12:50 PM 89.6 °F 87.3 °F 53.6 °F 29% 29.96 in 10.0 mi SSW 18.4 mph 28.8 mph N/A   Mostly Cloudy
2:50 PM 95.0 °F 92.7 °F 53.6 °F 25% 29.87 in 10.0 mi SSW 24.2 mph 31.1 mph N/A   Mostly Cloudy
5:50 PM 91.4 °F 89.1 °F 53.6 °F 28% 29.83 in 10.0 mi SSW 13.8 mph 26.5 mph N/A   Mostly Cloudy
7:50 PM 84.2 °F - 51.8 °F 33% 29.83 in 10.0 mi South 11.5 mph - N/A   Mostly Cloudy
8:50 PM 77.0 °F - 53.6 °F 44% 29.84 in 10.0 mi South 11.5 mph - N/A   Mostly Cloudy
9:15 PM 77.0 °F - 53.6 °F 44% 29.83 in 10.0 mi South 10.4 mph - N/A   Clear
9:35 PM 77.0 °F - 53.6 °F 44% 29.84 in 10.0 mi South 12.7 mph - N/A   Clear
9:55 PM 78.8 °F - 53.6 °F 42% 29.84 in 10.0 mi South 11.5 mph - N/A   Clear
10:15 PM 78.8 °F - 53.6 °F 42% 29.84 in 10.0 mi South 11.5 mph - N/A   Clear
10:35 PM 78.8 °F - 53.6 °F 42% 29.84 in 10.0 mi South 12.7 mph - N/A   Clear
10:55 PM 78.8 °F - 53.6 °F 42% 29.84 in 10.0 mi South 16.1 mph - N/A   Clear
11:15 PM 78.8 °F - 53.6 °F 42% 29.83 in 10.0 mi South 15.0 mph - N/A   Clear
11:55 PM 78.8 °F - 53.6 °F 42% 29.83 in 10.0 mi South 11.5 mph - N/A   Clear